Location: Keppel Henge
(44.7900°N, 80.9447°W)
Time: 21:32:00
(UTC-05:00)

Envisat - Pass Details

Date: 08 October 2017
Orbit: 764 x 766 km, 98.2° (Epoch: 16 December)

Event Time Altitude Azimuth Distance (km) Brightness Sun altitude
Exits shadow 22:21:42 20° 263° (W) 1,695 5.1 -36.8°
Maximum altitude 22:22:03 21° 268° (W) 1,690 5.2 -36.8°
Drops below altitude 10° 22:25:49 10° 316° (NW) 2,312 6.2 -37.4°
Sets 22:28:43 0° 333° (NNW) 3,244 7.0 -37.8°
